Tracking 19245 objects as of 21-Aug-2018
HD Live streaming from Space Station
objects crossing your sky now

FLOCK 3P 21

Track FLOCK 3P 21 now!
10-day predictions
FLOCK 3P 21 is classified as:


NORAD ID: 41959
Int'l Code: 2017-008M
Perigee: 492.1 km
Apogee: 506.1 km
Inclination: 97.4 °
Period: 94.4 minutes
Semi major axis: 6870 km
RCS: Unknown
Launch date: February 15, 2017
Source: United States (US)
Launch site: SRIHARIKOTA (SRI)
aabbcc
Your satellite tracking list
Your tracking list is empty




NASA's NSSDC Master Catalog

Two Line Element Set (TLE):
1 41959U 17008M   18232.89451494  .00002385  00000-0  99477-4 0  9992
2 41959  97.4458 297.3111 0010184 120.5012 239.7233 15.24622044 83804
Source of the keplerian elements: AFSPC